Weather History for Bonaire, Bonaire

Change the Weather History Date:

Monday, January 9, 2012

  Actual Average Record
Temperature  
Mean Temperature 80 °F -  
Max Temperature 85 °F 84 °F 87 °F (1998)
Min Temperature 75 °F 77 °F 73 °F (2014)
Cooling Degree Days 15    
Growing Degree Days 30 (Base 50)    
Moisture  
Dew Point 73 °F    
Average Humidity 77    
Maximum Humidity 89    
Minimum Humidity 58    
Precipitation  
Precipitation 0.00 in - - ()
Sea Level Pressure  
Sea Level Pressure 29.95 in    
Wind  
Wind Speed 10 mph ()    
Max Wind Speed 17 mph    
Max Gust Speed -    
Visibility 6.2 miles    
Events      
Averages and records for this station are not official NWS values.
T = Trace of Precipitation, MM = Missing Value Source: Averaged Metar Reports

Daily Weather History Graph

Daily Weather History Graph

Search for Another Location

Airport:

Trip Planner

Search our weather history database for the weather conditions in past years. The results will help you decide how hot, cold, wet, or windy it might be!

Date:

Astronomy

Jan. 09, 2012 Rise Set
Actual Time 6:56 AM AST 6:23 PM AST
Civil Twilight 6:33 AM AST 6:46 PM AST
Nautical Twilight 6:07 AM AST 7:12 PM AST
Astronomical Twilight 5:41 AM AST 7:39 PM AST
Moon 6:55 PM AST (1/9) 7:01 AM AST (1/9)
Length of Visible Light 12h 13m
Length of Day
11h 27m
Full, 100% of the Moon is Illuminated
Jan 9
Full
Jan 16
Last Quarter
Jan 23
New
Jan 31
First Quarter
Feb 7
Full

Hourly Weather History & Observations

Time (AST) Temp. Heat Index Dew Point Humidity Pressure Visibility Wind Dir Wind Speed Gust Speed Precip Events Conditions
12:00 AM 77.0 °F - 71.6 °F 83% 29.98 in - North - - N/A   Unknown
1:00 AM 77.0 °F - 71.6 °F 83% 29.98 in - North - - N/A   Unknown
2:00 AM 76 °F - 72 °F 82%  in - Calm Calm - -   Clear
2:00 AM 75.2 °F - 71.6 °F 89% 29.95 in - North - - N/A   Unknown
3:00 AM 75.2 °F - 71.6 °F 89% 29.95 in - North - - N/A   Unknown
4:00 AM 75.2 °F - 71.6 °F 89% 29.95 in - North - - N/A   Unknown
5:00 AM 77 °F - 72 °F 81%  in - Calm Calm - -   Clear
5:00 AM 77.0 °F - 71.6 °F 83% 29.95 in - North - - N/A   Unknown
6:00 AM 77.0 °F - 71.6 °F 83% 29.95 in - North - - N/A   Unknown
7:00 AM 77.0 °F - 71.6 °F 83% 29.95 in - North - - N/A   Unknown
8:00 AM 79 °F - 72 °F 73% 29.99 in 22 mi East 9.2 mph - -   Partly Cloudy
8:00 AM 78.8 °F - 71.6 °F 78% 29.98 in 6.2 mi East 9.2 mph - N/A   Partly Cloudy
9:00 AM 82.4 °F 88.2 °F 73.4 °F 74% 30.01 in 6.2 mi East 15.0 mph - N/A   Scattered Clouds
10:00 AM 82.4 °F 88.2 °F 73.4 °F 74% 30.01 in - North - - N/A   Unknown
11:00 AM 82.4 °F 88.2 °F 73.4 °F 74% 30.01 in - North - - N/A   Unknown
12:00 PM 84.2 °F 90.9 °F 73.4 °F 70% 29.98 in 6.2 mi East 16.1 mph - N/A   Scattered Clouds
1:00 PM 82.4 °F 88.2 °F 73.4 °F 74% 29.95 in 6.2 mi East 17.3 mph - N/A   Scattered Clouds
2:00 PM 85 °F - 72 °F 58% 29.94 in 22 mi East 17.3 mph - -   Partly Cloudy
2:00 PM 84.2 °F 90.9 °F 73.4 °F 70% 29.92 in 6.2 mi East 17.3 mph - N/A   Scattered Clouds
3:00 PM 84.2 °F 90.9 °F 73.4 °F 70% 29.92 in 6.2 mi East 16.1 mph - N/A   Scattered Clouds
4:00 PM 84.2 °F 90.9 °F 73.4 °F 70% 29.89 in 6.2 mi East 15.0 mph - N/A   Scattered Clouds
5:00 PM 83 °F - 73 °F 64% 29.92 in 22 mi East 13.8 mph - -   Partly Cloudy
5:00 PM 82.4 °F 87.2 °F 71.6 °F 70% 29.92 in - North - - N/A   Unknown
6:00 PM 80.6 °F 85.4 °F 73.4 °F 79% 29.92 in - North - - N/A   Unknown
7:00 PM 78.8 °F - 73.4 °F 83% 29.92 in 6.2 mi East 10.4 mph - N/A   Scattered Clouds
8:00 PM 80 °F - 73 °F 73% 29.96 in 22 mi Calm Calm - -   Partly Cloudy
8:00 PM 80.6 °F 85.4 °F 73.4 °F 79% 29.95 in - North - - N/A   Unknown
9:00 PM 80.6 °F 85.4 °F 73.4 °F 79% 29.95 in - North - - N/A   Unknown
10:00 PM 78.8 °F - 73.4 °F 83% 29.95 in - North - - N/A   Unknown
11:00 PM 79 °F - 73 °F 76%  in 22 mi Calm Calm - -   Clear
11:00 PM 78.8 °F - 73.4 °F 83% 29.95 in - North - - N/A   Unknown